User: anonymous   Login
Location: Unspecified
(0.0000°N, 0.0000°E)
Time: 17:27:42
(UTC+00:00)
Language:

UNISAT 5 - Orbit

View from above orbital plane
View from above orbital plane
View from above satellite
View from above satellite

Ground track
Ground track

The orbit data is extracted from the following two-line orbital elements,

1 39421U 13066F   18116.12417585  .00000192  00000-0  26903-4 0  9991
2 39421  97.5981 165.9057 0029573 283.8588  75.9339 14.87545368240172
Epoch (UTC): 26 April 2018 02:58:48
Eccentricity: 0.0029573
inclination: 97.5981°
perigee height: 585 km
apogee height: 626 km
right ascension of ascending node: 165.9057°
argument of perigee: 283.8588°
revolutions per day: 14.87545368
mean anomaly at epoch: 75.9339°
orbit number at epoch: 24017

The dashed part of the orbit path shows where the satellite is in the earth's shadow,  

DLR